User: anonymous   Login
Location: Unspecified
(0.0000°N, 0.0000°E)
Time: 07:45:49
(UTC+00:00)
Language:

STARLINK-33841 - Orbit

View from above orbital plane
View from above orbital plane
View from above satellite
View from above satellite

Ground track
Ground track

The orbit is defined by the following mean orbital elements,

1 63771U          26145.54837784 +.00000000 +00000-0 +69131-3 0 00004
2 63771  43.0026 331.0422 0000352 290.8440  69.2374 15.27590305    01
Epoch (UTC): 25 May 2026 13:09:39
Eccentricity: 0.0000352
inclination: 43.0026°
perigee height: 483 km
apogee height: 483 km
right ascension of ascending node: 331.0422°
argument of perigee: 290.8440°
revolutions per day: 15.27590305
mean anomaly at epoch: 69.2374°

The dashed part of the orbit path shows where the satellite is in the earth's shadow,  

DLR